Flag for Austria Weather past 2 weeks in Oberwart, Burgenland, Austria

Now
62 °F

Cool.


Feels Like: 62 °F
Forecast: 52 / 61 °F
Wind: 1 mph from West

Location: Eisenstadt

Current Time: Oct 21, 2014 at 12:08:27 AM

Latest Report: Oct 20, 2014 at 10:00 PM


Visibility: N/A

Pressure: 29.95 "Hg

Humidity: 87%

Dew point: 58 °F

Location of OberwartLocation

Historic Weather in Oberwart — Graph

°F

Oberwart temperature yesterday

Maximum temperature yesterday: 72 °F (at 1:00 PM)
Minimum temperature yesterday: 51 °F (at 7:00 AM)
Average temperature yesterday: 62 °F

Past Weeks' High & Low Weather Summary

 TemperatureHumidityPressure
High75 °F (Oct 9, 5:00 PM)100% (Oct 11, 8:00 AM)30.32 "Hg (Oct 11, 8:00 AM)
Low48 °F (Oct 6, 4:00 AM)52% (Oct 14, 3:00 PM)29.73 "Hg (Oct 14, 2:00 AM)
Average59 °F85%29.97 "Hg
* Reported Oct 5 10:00 PM — Oct 20 10:00 PM, Oberwart, Weather by CustomWeather, © 2014

Note: Actual official high and low records may vary slightly from our data, if they occured in-between our weather recording intervals... More about our weather records

Advertising

Oberwart weather history for previous 24 hours

 ConditionsComfort  
Time TempWeatherWind HumidityBarometerVisibility
10:00 PM
Oct 20
62 °FCool.1 mph87%29.95 "HgN/A
9:00 PM62 °FCool.1 mph85%29.96 "HgN/A
8:00 PM62 °FMild.1 mph84%29.96 "HgN/A
7:00 PM63 °FMild.2 mph82%29.97 "HgN/A
6:00 PM66 °FMild.5 mph74%29.97 "HgN/A
5:00 PM68 °FMild.3 mph71%29.98 "HgN/A
4:00 PM69 °FMild.1 mph76%29.98 "HgN/A
3:00 PM72 °FMild.3 mph61%29.99 "HgN/A
2:00 PM72 °FMild.5 mph55%30.01 "HgN/A
1:00 PM72 °FMild.6 mph53%30.04 "HgN/A
12:00 PM71 °FMild.5 mph59%30.06 "HgN/A
11:00 AM69 °FOvercast.7 mph58%30.08 "Hg12 mi
10:00 AM67 °FMild.5 mph62%30.08 "HgN/A
9:00 AM67 °FMild.6 mph62%30.07 "HgN/A
8:00 AM52 °FPartly sunny.2 mph96%30.08 "Hg12 mi
7:00 AM51 °FClear.1 mph96%30.08 "Hg9 mi
5:00 AM53 °FCool.1 mph96%30.08 "HgN/A
4:00 AM51 °FCool.1 mph96%30.09 "HgN/A
3:00 AM53 °FCool.2 mph95%30.10 "HgN/A
2:00 AM53 °FClear.1 mph96%30.11 "Hg9 mi
1:00 AM53 °FCool.1 mph96%30.12 "HgN/A
12:00 AM54 °FCool.1 mph95%30.13 "HgN/A
Weather by CustomWeather, © 2014

See weather overviewHow to use our weather pages